Temp
13 12 12 12 12 12 12 12 12 12 12 12 12 11 11 10 10 10 10 11 11 11 11 11 11 11 11 11 11 11 11 11 11 11 11 11 11 11 11 11 12 12
13 12 12 12 12 12 12 12 12 12 12 12 11 11 10 10 10 10 11 11 11 11 11 11 10 11 11 10 11 11 10 11 11 11 11 11 11 12 12 12 12 11
13 13 13 13 13 13 13 12 11 11 11 11 11 11 11 11 10 10 10 10 11 11 11 11 11 11 11 11 10 10 10 11 11 11 11 11 11 12 12 12 12 11
13 13 13 13 13 13 13 13 12 11 11 11 11 11 12 11 11 11 11 11 11 11 11 11 11 11 11 11 10 11 11 11 12 12 12 12 12 12 12 11 11 11
13 13 13 13 13 13 13 13 12 12 12 11 12 12 12 12 11 11 11 11 11 11 11 12 11 11 11 11 11 11 12 12 12 12 12 12 12 12 12 11 11 11
13 13 12 13 13 13 13 13 13 13 12 12 12 12 12 11 11 11 11 11 11 11 11 11 11 11 11 11 11 11 11 12 12 12 12 12 12 12 11 12 11 11
13 12 12 12 13 13 13 12 13 13 12 12 12 12 11 11 11 11 11 11 11 11 11 11 11 11 11 11 11 11 11 11 11 11 11 11 11 11 11 11 11 11
12 12 12 12 12 12 12 12 12 12 12 12 12 11 11 11 11 11 11 11 11 11 11 11 11 11 11 11 11 11 11 11 11 11 11 11 11 11 11 11 11 11
11 11 11 11 12 12 12 12 12 12 12 12 12 11 11 11 11 11 11 11 11 11 11 11 11 11 10 10 11 11 11 11 11 11 11 11 11 11 11 11 11 10
11 11 11 11 11 11 11 11 11 12 12 12 12 11 11 11 11 11 11 11 11 11 11 10 10 11 10 10 10 11 11 11 11 10 10 11 11 11 11 11 10 10
11 11 11 11 11 11 11 11 11 11 11 11 11 11 11 11 11 11 11 11 11 11 11 10 11 11 11 10 10 10 10 11 11 10 10 10 10 11 11 11 10 10
11 11 11 11 11 11 11 11 10 11 11 11 11 11 11 11 11 11 11 11 11 11 11 11 11 11 11 11 11 11 11 10 10 10 10 10 10 10 10 10 10 10
11 11 11 11 11 11 11 10 10 11 11 11 11 11 11 11 11 11 11 11 11 11 11 11 11 11 11 10 11 11 10 10 10 10 10 10 10 10 10 10 10 10
11 11 11 11 10 10 10 10 10 11 11 11 11 11 11 11 11 11 11 11 11 11 11 11 11 11 11 10 10 10 10 10 10 10 10 10 10 10 10 10 10 10
11 11 11 10 10 10 10 10 10 11 11 11 11 11 11 11 11 11 11 11 11 11 11 11 11 10 10 10 10 10 9 9 9 10 10 9 10 10 10 10 10 10
11 11 11 11 10 10 10 10 10 10 10 10 10 11 11 11 11 11 11 11 11 11 11 11 10 10 11 11 10 10 10 10 10 9 9 9 9 9 10 10 10 9
11 11 11 11 11 10 10 10 10 10 11 10 10 10 10 10 10 11 11 11 11 11 11 10 10 11 11 11 11 10 10 11 11 10 10 10 10 10 10 10 9 9
11 11 11 11 11 11 10 10 10 10 11 11 10 10 10 10 10 10 10 10 11 10 10 10 10 11 11 11 11 11 11 11 11 11 10 10 10 10 10 10 10 9
11 11 11 11 11 11 10 10 10 10 10 11 11 10 10 10 10 10 10 10 10 10 10 10 10 11 11 11 10 11 10 10 10 10 10 10 10 10 10 10 10 9
10 11 11 11 11 11 10 10 10 10 10 10 10 10 10 10 10 9 10 10 10 10 10 9 9 10 10 10 10 10 10 10 10 9 9 9 9 9 9 9 9 10
10 10 10 10 10 10 10 10 10 10 10 10 10 10 9 10 10 9 9 10 10 10 10 9 9 9 10 10 10 9 9 9 9 9 8 8 8 9 9 9 9 10
9 9 10 10 10 10 10 10 10 10 10 10 9 9 9 9 9 9 9 10 10 9 9 9 9 8 9 9 9 9 9 9 9 8 8 8 8 8 9 9 9 9
8 9 9 9 9 10 10 10 10 10 10 9 9 9 9 9 9 9 9 9 9 9 9 8 8 8 8 9 9 9 9 9 8 8 8 8 8 8 8 9 9 9
8 8 8 8 9 9 9 9 9 9 9 9 9 9 9 9 9 9 9 9 8 8 8 8 8 8 8 8 8 9 9 8 8 8 8 8 7 7 8 9 9 9
7 7 7 7 8 8 8 8 9 9 9 9 9 9 9 9 9 9 9 9 8 8 8 8 8 8 8 8 8 8 8 8 8 8 8 8 7 7 8 9 9 9
7 7 7 7 7 8 8 8 8 8 9 9 9 9 9 9 9 9 9 9 8 8 8 9 8 8 9 8 8 8 8 8 8 8 8 8 7 7 9 9 9 8
Height
1531 1532 1532 1533 1534 1535 1536 1536 1537 1537 1538 1538 1538 1538 1538 1537 1537 1537 1537 1537 1537 1537 1538 1538 1539 1539 1540 1541 1542 1543 1543 1543 1543 1544 1545 1546 1547 1548 1549 1550 1552 1553
1530 1531 1532 1533 1534 1535 1535 1536 1537 1538 1538 1538 1537 1537 1537 1537 1537 1537 1537 1537 1538 1538 1538 1539 1539 1540 1541 1542 1543 1544 1544 1544 1544 1545 1546 1547 1547 1548 1549 1551 1552 1553
1530 1531 1532 1533 1533 1534 1535 1535 1536 1537 1538 1537 1537 1537 1537 1537 1538 1538 1538 1538 1538 1539 1539 1539 1540 1541 1541 1542 1543 1544 1544 1544 1545 1546 1547 1547 1548 1549 1551 1552 1553 1555
1529 1530 1531 1532 1533 1534 1534 1535 1535 1536 1536 1537 1536 1536 1537 1537 1538 1539 1539 1539 1539 1540 1540 1540 1541 1542 1542 1543 1544 1544 1545 1545 1546 1546 1547 1548 1549 1551 1552 1553 1555 1556
1529 1530 1531 1532 1533 1534 1534 1535 1535 1535 1536 1536 1537 1537 1537 1538 1538 1539 1540 1540 1540 1541 1541 1541 1542 1542 1543 1544 1544 1545 1546 1546 1547 1548 1549 1550 1551 1552 1553 1554 1555 1557
1529 1529 1531 1532 1533 1534 1534 1535 1536 1536 1536 1537 1537 1538 1538 1539 1539 1540 1541 1541 1541 1542 1542 1542 1543 1543 1544 1544 1545 1546 1547 1548 1549 1550 1551 1551 1553 1554 1555 1556 1557 1558
1528 1529 1530 1531 1533 1534 1534 1536 1536 1536 1537 1537 1537 1538 1539 1539 1540 1541 1542 1542 1543 1543 1543 1543 1544 1544 1545 1545 1546 1547 1548 1549 1550 1552 1553 1553 1554 1555 1556 1557 1558 1559
1527 1528 1529 1531 1532 1533 1534 1536 1537 1537 1537 1538 1538 1539 1540 1541 1541 1542 1543 1544 1544 1544 1544 1544 1545 1545 1546 1546 1547 1547 1548 1550 1551 1553 1553 1554 1555 1556 1557 1558 1559 1560
1526 1527 1529 1530 1531 1533 1534 1535 1536 1537 1538 1538 1539 1540 1541 1541 1542 1542 1543 1544 1545 1545 1545 1545 1545 1545 1546 1547 1547 1548 1549 1550 1551 1552 1553 1554 1555 1557 1557 1558 1559 1560
1526 1527 1528 1529 1530 1532 1534 1535 1536 1537 1538 1539 1539 1540 1541 1541 1541 1542 1543 1544 1544 1544 1544 1545 1545 1545 1546 1547 1548 1549 1550 1550 1551 1552 1553 1554 1556 1557 1558 1558 1559 1560
1525 1526 1528 1529 1530 1532 1533 1534 1535 1537 1538 1539 1539 1540 1541 1541 1542 1542 1543 1543 1543 1544 1544 1544 1544 1545 1545 1546 1547 1548 1549 1550 1551 1552 1553 1554 1556 1557 1558 1558 1559 1560
1524 1525 1526 1528 1530 1532 1533 1533 1534 1536 1538 1539 1539 1540 1540 1541 1542 1543 1543 1543 1543 1544 1544 1544 1545 1545 1545 1546 1547 1548 1548 1550 1551 1552 1553 1554 1555 1556 1557 1558 1559 1560
1524 1524 1526 1528 1530 1531 1532 1532 1533 1535 1537 1538 1539 1540 1540 1541 1542 1542 1543 1543 1543 1544 1544 1545 1545 1545 1546 1546 1547 1548 1549 1550 1550 1552 1553 1554 1555 1556 1557 1558 1559 1560
1524 1524 1526 1527 1529 1530 1531 1532 1533 1534 1536 1537 1538 1539 1539 1540 1541 1541 1542 1542 1543 1543 1544 1544 1545 1545 1545 1546 1547 1547 1548 1549 1550 1551 1552 1553 1554 1555 1556 1557 1558 1559
1524 1524 1525 1527 1528 1529 1530 1531 1532 1533 1534 1535 1536 1537 1538 1539 1540 1541 1541 1541 1542 1542 1543 1543 1543 1544 1544 1545 1546 1547 1547 1548 1549 1550 1551 1552 1553 1554 1555 1555 1556 1557
1524 1524 1525 1526 1527 1529 1530 1530 1531 1531 1532 1533 1535 1536 1537 1538 1538 1539 1539 1540 1541 1541 1542 1542 1542 1542 1543 1544 1545 1545 1545 1545 1546 1547 1549 1550 1551 1552 1553 1554 1555 1556
1524 1525 1525 1526 1527 1528 1529 1529 1530 1530 1530 1531 1533 1534 1535 1535 1536 1537 1537 1538 1539 1539 1539 1539 1539 1540 1541 1542 1543 1543 1544 1544 1545 1545 1547 1548 1549 1550 1552 1553 1554 1554
1525 1525 1526 1526 1527 1527 1527 1528 1528 1529 1529 1530 1530 1531 1532 1533 1533 1534 1535 1535 1536 1537 1537 1536 1536 1537 1539 1540 1540 1541 1542 1544 1544 1545 1546 1548 1548 1549 1551 1552 1552 1552
1524 1525 1526 1526 1527 1527 1527 1527 1527 1527 1527 1528 1528 1529 1530 1530 1531 1531 1532 1533 1533 1534 1534 1534 1533 1534 1536 1537 1538 1539 1540 1542 1543 1543 1544 1546 1547 1548 1549 1549 1549 1550
1524 1525 1525 1526 1526 1526 1526 1526 1526 1526 1526 1526 1526 1527 1527 1527 1527 1528 1529 1530 1530 1530 1531 1532 1531 1531 1533 1535 1535 1536 1538 1539 1540 1541 1542 1543 1544 1545 1545 1546 1547 1548
1524 1524 1524 1524 1525 1525 1525 1525 1525 1525 1524 1524 1524 1524 1524 1524 1524 1525 1525 1526 1526 1527 1527 1528 1528 1528 1529 1531 1532 1533 1534 1535 1536 1538 1539 1541 1542 1541 1542 1544 1545 1546
1524 1524 1524 1524 1524 1524 1524 1524 1524 1523 1523 1523 1522 1522 1522 1522 1521 1521 1521 1522 1523 1523 1523 1524 1524 1524 1525 1527 1528 1529 1530 1530 1532 1535 1537 1538 1539 1539 1540 1541 1542 1543
1523 1523 1524 1523 1523 1523 1523 1522 1522 1522 1521 1521 1521 1521 1520 1520 1519 1518 1519 1519 1519 1520 1520 1520 1520 1520 1522 1524 1525 1525 1526 1527 1528 1531 1534 1536 1536 1537 1538 1538 1540 1541
1522 1522 1522 1522 1522 1521 1521 1520 1520 1520 1520 1519 1519 1519 1519 1518 1517 1516 1516 1517 1517 1516 1516 1515 1517 1519 1520 1522 1523 1523 1523 1524 1526 1528 1531 1533 1534 1534 1534 1536 1537 1539
1520 1520 1520 1519 1519 1519 1518 1518 1518 1518 1518 1517 1517 1517 1516 1516 1516 1514 1514 1515 1514 1513 1513 1513 1514 1516 1518 1520 1520 1520 1521 1522 1524 1526 1528 1530 1530 1531 1531 1533 1535 1537
1519 1519 1518 1517 1517 1516 1516 1516 1516 1516 1516 1515 1515 1515 1514 1514 1514 1513 1513 1512 1512 1511 1510 1510 1512 1513 1514 1515 1517 1518 1519 1521 1523 1524 1525 1526 1527 1527 1528 1530 1533 1534
Wind_Speed
9 8 9 9 8 7 7 6 7 8 7 8 7 7 6 6 7 7 7 7 8 10 10 8 8 8 8 10 10 8 9 10 10 9 9 9 9 8 8 8 7 6
10 9 10 10 9 8 9 9 8 8 8 8 8 7 7 8 8 7 7 7 8 11 11 9 9 9 8 9 10 8 9 10 10 9 9 9 8 8 8 8 9 8
12 11 9 9 10 9 10 11 11 10 10 10 9 9 9 9 9 8 8 9 9 11 12 11 10 9 8 9 10 8 9 11 11 10 10 9 9 9 9 9 10 9
13 12 10 9 9 9 10 12 13 14 14 13 12 12 13 12 10 9 9 9 10 10 11 12 11 10 9 9 9 9 10 10 11 11 11 11 11 11 11 11 10 9
13 13 11 9 9 10 10 11 12 13 14 14 13 13 15 14 11 9 9 9 9 10 10 11 11 11 10 10 9 10 10 10 11 12 12 13 13 12 12 12 12 10
15 13 11 10 10 11 11 10 9 10 12 14 13 13 14 13 10 9 9 8 8 9 10 10 11 11 11 11 11 10 9 10 12 12 12 13 12 11 11 11 11 10
16 14 12 12 12 11 9 9 10 10 11 13 14 13 13 12 10 9 9 9 8 9 9 10 12 13 12 12 12 12 11 12 12 11 10 11 12 11 10 10 8 7
15 15 14 14 14 11 8 9 10 10 11 12 13 12 11 10 10 10 9 9 9 9 9 10 11 13 12 11 12 14 15 14 11 9 10 11 11 10 8 9 8 6
12 13 14 15 16 14 12 12 11 10 10 11 11 11 11 10 11 11 11 10 10 10 10 10 11 12 12 11 12 14 15 14 12 9 10 10 9 8 7 8 8 6
11 12 13 15 16 16 14 14 13 11 10 11 11 10 11 11 11 11 12 12 12 12 12 12 12 13 13 12 12 12 11 12 12 10 10 9 8 7 6 6 7 6
11 12 13 14 14 14 12 14 16 14 11 11 11 11 11 11 11 11 12 13 13 12 13 13 13 15 14 13 14 14 12 12 11 10 10 9 8 8 7 6 6 6
10 11 11 12 13 12 12 14 16 15 13 12 12 11 12 12 12 11 11 12 12 12 12 12 13 14 14 13 15 15 14 12 10 9 9 9 8 8 7 7 7 6
10 10 11 11 12 12 12 13 14 14 14 13 12 12 12 12 12 12 12 12 12 13 13 13 13 13 13 13 13 13 12 11 10 10 9 8 8 7 7 7 7 8
9 10 10 11 12 11 11 11 12 13 13 14 13 13 13 13 13 13 14 13 14 14 14 15 15 15 15 15 14 14 13 11 11 11 9 8 9 8 8 9 9 9
8 9 10 10 10 10 10 11 12 13 13 14 14 14 15 14 14 14 14 14 15 15 16 16 17 17 17 17 17 16 14 14 13 12 10 9 8 8 11 12 11 11
6 7 8 8 9 10 10 11 12 13 14 15 14 15 16 16 15 15 15 16 16 16 17 18 19 20 19 19 19 19 18 19 19 17 14 13 11 10 12 13 11 12
3 4 6 7 8 10 10 11 13 14 15 15 15 15 16 16 16 16 17 18 18 18 19 22 23 23 21 20 22 22 22 21 22 21 18 15 13 11 11 11 11 10
1 2 3 5 7 9 11 12 14 15 15 15 16 17 17 18 19 19 19 20 20 20 22 25 27 26 23 22 23 24 23 22 23 23 21 18 18 15 12 12 12 10
1 1 2 3 5 7 9 11 13 14 15 16 17 17 18 19 21 22 22 23 23 23 22 24 27 28 25 24 24 24 24 24 24 24 23 23 23 20 18 17 15 14
4 3 3 3 4 5 6 9 11 12 14 15 16 17 18 19 20 21 23 25 26 26 25 24 26 28 27 25 24 24 24 25 26 24 23 23 23 24 25 23 18 17
6 5 4 4 4 4 6 8 9 11 13 14 16 17 18 21 22 22 23 26 29 31 30 28 27 27 27 26 26 25 25 26 27 25 23 20 20 23 25 22 19 17
6 6 6 5 5 5 6 8 9 11 12 13 15 16 17 20 23 23 24 25 27 29 29 29 28 27 27 29 28 27 27 27 25 25 24 21 19 20 18 16 15 13
6 6 6 6 6 6 7 8 9 11 12 12 13 14 16 18 21 22 22 22 24 25 26 29 31 29 29 30 29 28 29 27 24 24 23 21 18 16 15 16 15 12
7 7 7 7 7 7 8 9 9 11 12 12 13 14 16 18 20 22 21 20 21 23 26 28 29 27 27 27 26 28 29 26 24 23 21 20 18 17 17 17 15 14
10 10 10 10 9 9 8 9 10 11 12 13 14 15 16 17 19 21 21 20 21 23 25 26 25 25 25 24 23 25 28 27 25 23 22 21 20 19 18 17 15 15
11 11 12 14 15 15 14 13 12 12 12 13 14 15 16 17 18 19 20 21 22 24 27 27 25 25 26 25 23 25 30 29 24 23 25 22 19 19 19 18 16 15
Wind_Direction
180 162 153 149 151 158 156 155 155 153 151 149 148 148 148 147 144 147 152 151 155 156 148 133 119 113 107 104 103 105 106 107 111 114 115 119 123 123 126 130 127 113
201 183 169 159 156 164 164 157 152 152 152 150 149 149 150 148 142 137 135 135 146 156 155 146 131 119 114 116 116 117 115 111 112 115 116 119 129 137 142 142 127 106
213 204 196 183 178 183 178 165 156 156 159 157 157 160 159 150 141 135 132 131 139 150 154 155 145 133 131 127 120 121 126 127 129 130 131 132 135 140 141 133 118 101
222 212 206 197 194 192 181 172 170 172 173 171 170 172 168 159 151 146 142 142 144 148 152 152 144 137 133 127 125 133 140 145 149 146 143 141 140 141 135 125 115 103
223 216 211 201 194 185 172 170 178 182 182 179 177 177 172 164 156 150 147 148 150 152 156 156 150 143 136 131 137 145 146 149 150 144 142 142 140 141 138 131 123 110
221 220 217 202 186 171 160 162 173 180 181 177 175 177 173 161 152 152 150 146 149 152 155 156 154 147 141 139 138 135 135 143 143 137 137 138 134 133 131 127 119 111
222 220 214 200 187 176 172 178 179 178 178 175 173 174 168 157 151 155 153 146 145 148 151 155 155 148 141 137 135 134 135 136 131 126 130 136 136 133 129 124 117 120
221 222 217 206 200 195 203 211 196 180 177 175 172 166 158 157 159 157 154 154 150 149 150 151 149 144 137 136 144 149 147 138 127 127 138 142 139 136 140 143 135 134
210 214 212 210 213 215 220 221 202 180 175 178 178 167 158 163 168 164 161 163 159 157 156 152 152 150 143 144 153 154 153 147 139 141 147 145 141 140 152 161 152 151
195 202 203 208 219 224 224 218 208 194 183 182 184 179 172 171 174 174 172 171 168 167 164 162 166 164 153 150 155 152 154 158 155 154 152 147 148 151 159 172 166 164
190 197 204 209 214 217 219 217 213 208 201 194 188 186 185 182 180 181 183 184 182 180 179 178 179 177 168 167 170 165 163 167 165 163 162 158 162 167 170 177 178 179
197 199 200 205 209 210 214 218 217 211 206 203 196 193 194 191 188 187 190 195 195 192 193 191 189 187 183 182 184 179 175 173 170 172 174 172 177 182 184 190 193 195
208 205 196 198 207 210 213 218 217 208 203 203 202 201 201 199 197 196 195 197 200 198 197 195 193 192 190 188 186 184 180 177 177 178 179 182 187 190 198 208 212 214
203 207 200 200 208 211 211 212 211 208 208 210 210 209 209 207 206 205 203 200 201 201 199 197 193 190 192 191 187 185 183 183 186 185 185 196 199 197 207 214 217 223
202 210 205 205 214 216 212 211 211 212 215 217 218 218 218 217 214 213 211 208 207 204 201 199 195 193 197 199 194 190 185 182 183 182 183 196 201 208 220 221 222 226
204 214 211 210 216 218 219 223 224 222 222 223 224 226 226 225 224 220 217 214 213 209 205 202 200 203 210 211 204 200 198 196 194 189 187 193 201 213 225 229 233 240
202 212 215 217 221 223 225 231 236 236 235 233 231 229 228 228 227 224 221 219 217 212 210 212 216 224 231 230 223 220 223 223 216 208 203 205 217 226 232 234 237 251
208 206 216 221 228 235 238 240 243 244 242 241 238 236 235 232 229 227 224 225 224 219 217 225 233 239 241 238 233 231 234 236 233 232 232 232 235 239 241 240 237 241
2 312 260 237 231 239 243 244 246 247 245 244 243 242 239 235 235 236 235 233 232 227 223 228 237 241 240 238 237 234 233 233 237 244 247 242 240 244 245 244 241 237
14 344 303 276 252 248 246 243 247 250 250 247 245 243 240 236 237 238 237 236 235 233 227 226 234 241 239 233 233 236 235 235 237 241 245 245 245 248 248 245 243 242
14 357 333 307 283 267 259 258 259 258 255 252 248 245 244 244 243 240 240 242 242 242 238 232 233 238 236 232 235 238 237 238 238 239 241 240 236 241 244 242 240 239
4 351 340 327 308 290 277 272 270 268 266 260 254 250 247 247 246 245 246 246 244 244 242 236 232 233 235 239 240 234 233 237 236 232 232 230 226 229 232 227 225 221
344 336 329 322 314 306 295 283 275 274 273 265 257 254 251 249 249 248 247 245 242 241 238 237 237 237 239 242 238 234 237 238 227 217 218 218 215 209 205 208 212 205
318 315 311 308 307 306 300 291 284 279 275 268 259 253 252 253 253 252 251 249 246 242 241 242 245 244 241 239 237 235 232 219 204 200 201 201 196 190 197 209 211 208
305 301 298 294 291 292 293 292 290 286 279 271 263 256 254 254 254 255 254 251 248 247 248 249 249 247 243 237 231 224 210 195 190 192 192 191 188 188 200 210 205 205
299 296 292 288 284 283 285 284 285 288 285 277 268 262 258 256 255 257 256 253 251 253 254 253 251 247 242 235 227 214 200 191 189 191 192 189 184 188 201 205 202 204